Regional Weather Roundup
Issued by NWS

Home | Current Version | Previous Version | Graphics & Text | Print | Product List | Glossary On
Versions: 1 2 3 4 5 6 7 8 9 10 11 12 13 14 15 16 17 18 19 20 21 22 23 24 25 26 27 28 29 30 31 32 33 34 35 36 37 38 39 40 41 42 43 44 45 46 47 48 49 50
000
ASUS43 KFSD 252002
RWRSD

WEATHER ROUNDUP FOR SOUTH DAKOTA
NATIONAL WEATHER SERVICE SIOUX FALLS SD
200 PM CST SAT FEB 25 2017

NOTE: "FAIR" INDICATES FEW OR NO CLOUDS BELOW 12,000 FEET WITH NO
SIGNIFICANT WEATHER AND/OR OBSTRUCTIONS TO VISIBILITY.


SDZ001>005-009-010-012>017-252100-
NORTHWEST AND NORTH CENTRAL SOUTH DAKOTA

CITY           SKY/WX    TMP DP  RH WIND       PRES   REMARKS
BUFFALO          N/A     32  12  43 W16       29.70F WCI  21
FAITH            N/A     34  14  43 NW22      29.78F WCI  22
MOBRIDGE       CLOUDY    36  24  62 NW15      29.76F
$$

SDZ012>016-024>037-041>051-057-063-072>074-252100-
SOUTHWEST AND SOUTH CENTRAL SOUTH DAKOTA

CITY           SKY/WX    TMP DP  RH WIND       PRES   REMARKS
RAPID CTY ARPT CLOUDY    30  21  69 S15       29.81F WCI  19
PIERRE         CLOUDY    37  22  54 W14       29.81F
CUSTER         CLOUDY    20  11  68 W8G20     29.72F WCI  10
ELLSWORTH AFB  PTSUNNY   33  16  50 N7        29.80F WCI  27
PHILIP         CLOUDY    37  20  50 NW15      29.82F
PINE RIDGE     PTSUNNY   29  21  72 W16       29.87F WCI  17
SPEARFISH      FAIR      30  16  55 NW14G21   29.77F WCI  20
WINNER         MOCLDY    30  20  66 SW9       29.85F WCI  22
$$

SDZ004>011-016>023-039-040-252100-
NORTHEAST SOUTH DAKOTA

CITY           SKY/WX    TMP DP  RH WIND       PRES   REMARKS
ABERDEEN       PTSUNNY   37  15  40 SW13      29.81F
WATERTOWN      CLOUDY    33  18  53 SW20G25   29.83F WCI  21
BROOKINGS      MOSUNNY   30  16  56 SW16G22   29.88F WCI  19
SISSETON         N/A     36  19  50 W14G25    29.81F
$$

SDZ017-020-022-023-036>040-048>070-252100-
SOUTHEAST SOUTH DAKOTA

CITY           SKY/WX    TMP DP  RH WIND       PRES   REMARKS
SIOUX FALLS    CLOUDY    27  17  66 S15       29.93F WCI  15
HURON          MOSUNNY   37  18  46 S13G20    29.85F
CHAMBERLAIN    CLOUDY    37  21  53 SW10      29.85F
MITCHELL       SUNNY     32  20  61 S16       29.90F WCI  21
YANKTON        CLOUDY    28  16  59 S14       29.94F WCI  17
$$

ABBREVIATIONS USED IN REMARKS
   TC - TEMPERATURE IN CELSIUS
  WCI - WIND CHILL INDEX
   HX - HEAT INDEX
  VSB - VISIBILITY




USA.gov is the U.S. government's official web portal to all federal, state and local government web resources and services.